Regional Weather Roundup
Issued by NWS

Home | Current Version | Previous Version | Text Only | Print | Product List | Glossary Off
Versions: 1 2 3 4 5 6 7 8 9 10 11 12 13 14 15 16 17 18 19 20 21 22 23 24 25 26 27 28 29 30 31 32 33 34 35 36 37 38 39 40 41 42 43 44 45 46 47 48 49 50

000
ASUS45 KPSR 270100
RWRAZ

PRELIMINARY ARIZONA REGIONAL HOURLY WEATHER ROUNDUP
NATIONAL WEATHER SERVICE PHOENIX AZ
600 PM MST FRI DEC 26 2014

NOTE: FAIR INDICATES FEW OR NO CLOUDS BELOW 12,000 FEET WITH NO
SIGNIFICANT WEATHER AND/OR OBSTRUCTIONS TO VISIBILITY.

AZZ001>003-036-270200-
NORTHWEST ARIZONA

CITY           SKY/WX    TMP DP  RH WIND       PRES   REMARKS
KINGMAN        FAIR      36  11  35 N9        30.08R WCI  29
$$

AZZ004>008-015-016-018-270200-
NORTH CENTRAL ARIZONA

CITY           SKY/WX    TMP DP  RH WIND       PRES   REMARKS
GRAND CANYON   PTCLDY    22  11  62 CALM      29.98R
PRESCOTT       MOCLDY    32  15  49 NW5       30.00R WCI  27
FLAGSTAFF      NOT AVBL
PAGE           PTCLDY    37   8  30 W8        29.98R WCI  31
$$

AZZ009>014-017-270200-
NORTHEAST ARIZONA

CITY           SKY/WX    TMP DP  RH WIND       PRES   REMARKS
WINSLOW        NOT AVBL
SAINT JOHNS    CLOUDY    31  17  56 N9        29.96R WCI  23
WINDOW ROCK    MOCLDY    22  13  68 S3        29.95R
$$

AZZ023-270200-
GREATER PHOENIX AREA

CITY           SKY/WX    TMP DP  RH WIND       PRES   REMARKS
PHOENIX        PTCLDY    53  18  25 SW5       30.03R
GLENDALE       PTCLDY    50  23  34 CALM      30.05R
LUKE AFB       CLEAR     51  22  32 SW6       30.03R
DEER VALLEY    CLEAR     49  17  28 S3        30.03R
SCOTTSDALE     CLEAR     50  18  28 CALM      30.05R
MESA-FALCON    CLEAR     48  16  27 CALM      30.04R
MESA-GATEWAY   CLEAR     48  19  32 NW5       30.06R
CHANDLER       CLEAR     50  18  27 VRB6      30.05R
$$

AZZ027-028-270200-
SOUTHWEST MARICOPA COUNTY AND PINAL COUNTY

CITY           SKY/WX    TMP DP  RH WIND       PRES   REMARKS
CASA GRANDE    CLEAR     48  16  27 CALM      30.05R
$$

AZZ503-504-507>509-270200-
SOUTHEAST ARIZONA

CITY           SKY/WX    TMP DP  RH WIND       PRES   REMARKS
TUCSON         FAIR      47  17  30 N8        30.03R
DAVIS-MONTHAN  PTCLDY    44  22  40 NW7       30.01R
RYAN FIELD       N/A     48  25  40 NW6       30.04R
NOGALES        PTCLDY    42  10  27 NW6       29.99R
SIERRA VISTA   FAIR      37  15  40 W9        29.98R WCI  30
SAFFORD        FAIR      43  14  31 NW12      29.97R
$$

AZZ020-021-025-026-031-270200-
SOUTHWEST ARIZONA

CITY           SKY/WX    TMP DP  RH WIND       PRES   REMARKS
YUMA           NOT AVBL
$$

CAZ031-033-041-043-047-048-061-270200-
SOUTHERN CALIFORNIA

CITY           SKY/WX    TMP DP  RH WIND       PRES   REMARKS
DOWNTOWN L.A.  PTCLDY    58  24  27 CALM      30.08R
L.A. AIRPORT   PTCLDY    57  24  28 SW9       30.09R
SAN DIEGO      PTCLDY    59  31  34 NW7       30.08R
BURBANK        PTCLDY    57  22  25 S5        30.07R
ONTARIO        PTCLDY    54  13  19 E9        30.08R
RIVERSIDE      PTCLDY    55  11  17 NE6       30.08R
PALM SPRINGS   FAIR      59   9  13 N3        30.12R
EL CENTRO NAS  CLEAR     54  19  25 NE3       30.09R
IMPERIAL       CLEAR     56  20  24 N3        30.08R
BLYTHE         PTCLDY    54  14  20 NW8       30.08R
$$

NVZ020-UTZ003-270200-
SOUTHERN NEVADA-UTAH

CITY           SKY/WX    TMP DP  RH WIND       PRES   REMARKS
LAS VEGAS      NOT AVBL
SALT LAKE CITY PTCLDY    25  15  66 N7        30.13R WCI  17
$$

NMZ009-TXZ055-270200-
NEW MEXICO-WEST TEXAS

CITY           SKY/WX    TMP DP  RH WIND       PRES   REMARKS
ALBUQUERQUE    PTCLDY    33  12  41 SW10      29.97R WCI  25
EL PASO        CLOUDY    38  34  85 S13       29.98R WCI  30
$$


........................KEY........................
SKY/WX - SKY CONDITION/WEATHER
TMP    - TEMPERATURE IN FAHRENHEIT
DP     - DEW POINT IN FAHRENHEIT
RH     - RELATIVE HUMIDITY IN PERCENT
WIND   - DIRECTION AND SPEED IN MILES PER HOUR (MPH)
VRB    - VARIABLE WIND DIRECTION
PRES   - MEAN SEA LEVEL PRESSURE IN INCHES OF MERCURY
         F - FALLING PRESSURE   R - RISING PRESSURE
         S - STEADY PRESSURE
VSB    - VISIBILITY IN MILES
HX     - HEAT INDEX IN FAHRENHEIT
WCI    - WIND CHILL INDEX IN FAHRENHEIT
TC     - TEMPERATURE IN CELSIUS WHICH IS ALSO KNOWN AS
         TEMPERATURE IN CENTIGRADE
AFB    - AIR FORCE BASE
         LUKE AFB IS LUKE AIR FORCE BASE
         DAVIS-MONTHAN IS DAVIS-MONTHAN AIR FORCE BASE
NAS    - NAVAL AIR STATION
         EL CENTRO NAS IS EL CENTRO NAVAL AIR STATION
N/A    - NOT AVAILABLE


USA.gov is the U.S. government's official web portal to all federal, state and local government web resources and services.